Glens Falls, NY

11:32 PM EDT on October 20, 2019 (GMT -0400)
Bennett Memorial

Weather History for KGFL - August, 2019

Change the Weather History Date:

Monday, August 5, 2019

  Actual Average Record
Temperature  
Mean Temperature 64 °F 68 °F  
Max Temperature 80 °F 80 °F 96 °F (1955)
Min Temperature 47 °F 57 °F 42 °F (1972)
Degree Days  
Heating Degree Days 1 1  
Month to date heating degree days 1 5  
Since 1 June heating degree days 71 116  
Since 1 July heating degree days 1 26  
Cooling Degree Days 0 4  
Month to date cooling degree days 11 20  
Year to date cooling degree days 307 240  
Since 1 June cooling degree days 298 228  
Growing Degree Days 12 (Base 50)    
Moisture  
Dew Point 51 °F    
Average Humidity 71    
Maximum Humidity 100    
Minimum Humidity 42    
Precipitation  
Precipitation 0.00 in 0.13 in 1.11 in (2003)
Month to date precipitation T 0.67  
Year to date precipitation 25.94 22.80  
Sea Level Pressure  
Sea Level Pressure 29.99 in    
Wind  
Wind Speed 4 mph (South)    
Max Wind Speed 14 mph    
Max Gust Speed 20 mph    
Visibility 7 miles    
Events Fog    
T = Trace of Precipitation, MM = Missing Value Source: NWS Daily Summary

Daily Weather History Graph

Daily Weather History Graph

Search for Another Location

Airport or City:

Astronomy

Aug. 05, 2019 Rise Set
Actual Time 5:48 AM EDT 8:11 PM EDT
Civil Twilight 5:16 AM EDT 8:43 PM EDT
Nautical Twilight 4:36 AM EDT 9:23 PM EDT
Astronomical Twilight 3:51 AM EDT 10:07 PM EDT
Moon 11:10 AM EDT (8/5) 11:12 PM EDT (8/5)
Length of Visible Light 15h 27m
Length of Day
14h 23m
Waxing Crescent, 28% of the Moon is Illuminated
Aug 5
Waxing Crescent
Aug 7
First Quarter
Aug 15
Full
Aug 23
Last Quarter
Aug 30
New

Hourly Weather History & Observations

Time (EDT) Temp. Dew Point Humidity Pressure Visibility Wind Dir Wind Speed Gust Speed Precip Events Conditions
12:53 AM 53.1 °F 50.0 °F 89% 30.00 in 10.0 mi Calm Calm - N/A   Clear
1:53 AM 53.1 °F 50.0 °F 89% 30.00 in 10.0 mi Calm Calm - N/A   Clear
2:53 AM 51.1 °F 48.9 °F 92% 30.00 in 10.0 mi Calm Calm - N/A   Clear
3:03 AM 48.9 °F 48.0 °F 97% 30.00 in 1.8 mi Calm Calm - N/A   Clear
3:15 AM 48.9 °F 48.0 °F 97% 30.00 in 3.0 mi South 3.5 mph - N/A   Clear
3:46 AM 48.9 °F 46.9 °F 93% 30.00 in 0.8 mi Calm Calm - N/A   Clear
3:53 AM 46.9 °F 46.0 °F 97% 30.01 in 0.5 mi Calm Calm - N/A Fog Fog
4:07 AM 50.0 °F 48.0 °F 93% 30.00 in 2.0 mi Calm Calm - N/A   Clear
4:15 AM 48.9 °F 46.9 °F 93% 30.01 in 10.0 mi Calm Calm - N/A   Clear
4:23 AM 46.9 °F 46.0 °F 97% 30.01 in 1.8 mi Calm Calm - N/A   Clear
4:37 AM 48.0 °F 46.9 °F 96% 30.01 in 0.5 mi Calm Calm - N/A Fog Fog
4:49 AM 48.2 °F 46.4 °F 93% 30.01 in 2.5 mi Calm Calm - N/A   Clear
4:53 AM 48.0 °F 46.9 °F 96% 30.01 in 3.0 mi Calm Calm - N/A   Clear
4:55 AM 48.0 °F 46.9 °F 96% 30.01 in 1.5 mi Calm Calm - N/A   Clear
5:11 AM 50.0 °F 48.0 °F 93% 30.01 in 3.0 mi NW 4.6 mph - N/A   Clear
5:53 AM 48.9 °F 48.0 °F 97% 30.01 in 10.0 mi Calm Calm - N/A   Clear
6:14 AM 48.0 °F 48.0 °F 100% 30.01 in 1.8 mi Calm Calm - N/A   Clear
6:24 AM 48.9 °F 48.0 °F 97% 30.01 in 3.0 mi South 5.8 mph - N/A   Clear
6:53 AM 54.0 °F 52.0 °F 93% 30.02 in 10.0 mi Calm Calm - N/A   Clear
7:53 AM 60.1 °F 55.0 °F 83% 30.03 in 10.0 mi Calm Calm - N/A   Clear
8:53 AM 64.9 °F 52.0 °F 63% 30.04 in 10.0 mi Calm Calm - N/A   Clear
9:53 AM 66.9 °F 52.0 °F 59% 30.04 in 10.0 mi South 3.5 mph - N/A   Clear
10:53 AM 71.1 °F 53.1 °F 53% 30.03 in 10.0 mi SSE 5.8 mph - N/A   Clear
11:53 AM 73.0 °F 53.1 °F 49% 30.02 in 10.0 mi Variable 4.6 mph - N/A   Clear
12:53 PM 75.9 °F 55.0 °F 48% 29.99 in 10.0 mi SSE 5.8 mph - N/A   Clear
1:53 PM 77.0 °F 53.1 °F 43% 29.97 in 10.0 mi Variable 4.6 mph - N/A   Clear
2:53 PM 79.0 °F 54.0 °F 42% 29.96 in 10.0 mi SSE 9.2 mph - N/A   Clear
3:53 PM 79.0 °F 53.1 °F 40% 29.95 in 10.0 mi SSE 10.4 mph - N/A   Clear
4:53 PM 79.0 °F 54.0 °F 42% 29.94 in 10.0 mi South 10.4 mph - N/A   Clear
5:53 PM 79.0 °F 55.0 °F 44% 29.93 in 10.0 mi South 8.1 mph - N/A   Clear
6:53 PM 75.9 °F 53.1 °F 45% 29.91 in 10.0 mi South 9.2 mph - N/A   Clear
7:53 PM 71.1 °F 54.0 °F 55% 29.92 in 10.0 mi South 5.8 mph - N/A   Clear
8:53 PM 66.0 °F 55.0 °F 68% 29.92 in 10.0 mi SW 3.5 mph - N/A   Clear
9:53 PM 61.0 °F 55.0 °F 81% 29.94 in 10.0 mi Calm Calm - N/A   Clear
10:53 PM 60.1 °F 55.0 °F 83% 29.92 in 10.0 mi NW 4.6 mph - N/A   Clear
11:53 PM 57.9 °F 54.0 °F 87% 29.92 in 10.0 mi Calm Calm - N/A   Clear